Weather History for St. Cloud, MN

Change the Weather History Date:

Tuesday, February 11, 2014

  Actual Average Record
Temperature  
Mean Temperature -5 °F 16 °F  
Max Temperature 15 °F 26 °F 48 °F (1987)
Min Temperature -25 °F 6 °F -35 °F (1899)
Degree Days  
Heating Degree Days 70 49  
Month to date heating degree days 729 559  
Since 1 July heating degree days 6279 5661  
Cooling Degree Days 0 0  
Month to date cooling degree days 0 0  
Year to date cooling degree days 0 0  
Moisture  
Dew Point -4 °F    
Average Humidity 72    
Maximum Humidity 86    
Minimum Humidity 58    
Precipitation  
Precipitation 0.04 in 0.02 in 0.22 in (1979)
Month to date precipitation 0.04 0.19  
Year to date precipitation 1.38 0.84  
Snow  
Snow 0.20 in 0.20 in 3.00 in (1903)
Month to date snowfall 0.3 2.5  
Since 1 July snowfall 41.1 29.7  
Snow Depth 15.00 in    
Sea Level Pressure  
Sea Level Pressure 30.20 in    
Wind  
Wind Speed 10 mph (South)    
Max Wind Speed 23 mph    
Max Gust Speed 31 mph    
Visibility 7 miles    
Events Snow    
T = Trace of Precipitation, MM = Missing Value Source: NWS Daily Summary

Daily Weather History Graph

Daily Weather History Graph

Search for Another Location

Airport:

Trip Planner

Search our weather history database for the weather conditions in past years. The results will help you decide how hot, cold, wet, or windy it might be!

Date:

Astronomy

Feb. 11, 2014 Rise Set
Actual Time 7:24 AM CST 5:37 PM CST
Civil Twilight 6:53 AM CST 6:08 PM CST
Nautical Twilight 6:18 AM CST 6:43 PM CST
Astronomical Twilight 5:44 AM CST 7:17 PM CST
Moon 2:54 PM CST (2/11) 5:05 AM CST (2/11)
Length of Visible Light 11h 15m
Length of Day
10h 13m
Waxing Gibbous, 91% of the Moon is Illuminated
Feb 11
Waxing Gibbous
Feb 14
Full
Feb 22
Last Quarter
Mar 1
New
Mar 8
First Quarter

Hourly Weather History & Observations

Time (CST) Temp. Windchill Dew Point Humidity Pressure Visibility Wind Dir Wind Speed Gust Speed Precip Events Conditions
12:53 AM -17.0 °F - -23.1 °F 74% 30.54 in 10.0 mi Calm Calm - N/A   Clear
1:53 AM -18.0 °F - -25.1 °F 70% 30.54 in 10.0 mi Calm Calm - N/A   Clear
2:53 AM -20.9 °F - -27.9 °F 70% 30.53 in 10.0 mi Calm Calm - N/A   Clear
3:53 AM -20.9 °F - -29.0 °F 66% 30.52 in 10.0 mi Calm Calm - N/A   Clear
4:53 AM -23.1 °F - -29.9 °F 70% 30.50 in 10.0 mi Calm Calm - N/A   Clear
5:53 AM -24.0 °F - -31.0 °F 70% 30.50 in 10.0 mi Calm Calm - N/A   Clear
6:53 AM -24.0 °F - -32.1 °F 66% 30.47 in 10.0 mi Calm Calm - N/A   Clear
7:53 AM -20.0 °F -37.1 °F -23.1 °F 86% 30.45 in 10.0 mi SE 6.9 mph - N/A   Clear
8:53 AM -11.9 °F -29.9 °F -17.0 °F 78% 30.43 in 10.0 mi SE 9.2 mph - N/A   Clear
9:53 AM -2.9 °F -21.6 °F -9.9 °F 72% 30.40 in 10.0 mi South 12.7 mph - N/A   Clear
10:53 AM 1.9 °F -14.7 °F -8.0 °F 63% 30.37 in 10.0 mi South 11.5 mph 23.0 mph N/A   Clear
11:53 AM 6.1 °F -13.3 °F -5.1 °F 60% 30.33 in 10.0 mi South 18.4 mph - N/A   Scattered Clouds
12:53 PM 8.1 °F -10.7 °F -2.9 °F 61% 30.29 in 10.0 mi South 18.4 mph 31.1 mph N/A   Scattered Clouds
1:53 PM 10.0 °F -7.1 °F -2.0 °F 58% 30.25 in 10.0 mi South 16.1 mph - N/A   Overcast
2:16 PM 10.4 °F -9.5 °F -0.4 °F 62% 30.11 in 10.0 mi South 23.0 mph - N/A   Overcast
2:53 PM 12.0 °F -6.0 °F -0.0 °F 59% 30.21 in 10.0 mi South 19.6 mph 28.8 mph N/A   Overcast
3:53 PM 10.9 °F -7.0 °F -0.0 °F 61% 30.17 in 10.0 mi SSE 18.4 mph - N/A   Overcast
4:53 PM 12.0 °F -3.4 °F -0.0 °F 59% 30.14 in 10.0 mi SSE 13.8 mph 27.6 mph N/A   Overcast
5:53 PM 12.0 °F -3.4 °F 1.0 °F 61% 30.12 in 10.0 mi SSE 13.8 mph 23.0 mph N/A   Overcast
6:53 PM 12.0 °F -5.1 °F 1.9 °F 64% 30.12 in 10.0 mi South 17.3 mph - N/A   Overcast
7:32 PM 12.2 °F -4.3 °F 3.2 °F 67% 30.00 in 1.8 mi South 16.1 mph - 0.00 in Snow Light Snow
7:53 PM 12.9 °F -2.8 °F 5.0 °F 71% 30.12 in 2.0 mi South 15.0 mph 21.9 mph 0.01 in Snow Light Snow
8:07 PM 12.2 °F -3.1 °F 5.0 °F 73% 29.99 in 5.0 mi South 13.8 mph - 0.00 in Snow Light Snow
8:38 PM 12.2 °F -3.1 °F 5.0 °F 73% 29.99 in 10.0 mi South 13.8 mph - 0.00 in   Overcast
8:53 PM 14.0 °F -0.8 °F 5.0 °F 67% 30.10 in 10.0 mi South 13.8 mph - 0.00 in   Overcast
9:21 PM 14.0 °F -1.4 °F 6.8 °F 73% 29.99 in 3.0 mi South 15.0 mph 20.7 mph 0.00 in Snow Light Snow
9:30 PM 14.0 °F -0.8 °F 6.8 °F 73% 29.99 in 2.0 mi South 13.8 mph - 0.00 in Snow Light Snow
9:43 PM 14.0 °F -0.2 °F 6.8 °F 73% 29.99 in 1.5 mi South 12.7 mph - 0.00 in Snow Light Snow
9:53 PM 14.0 °F 0.5 °F 8.1 °F 77% 30.09 in 1.2 mi South 11.5 mph - 0.01 in Snow Light Snow
10:44 PM 14.0 °F 0.5 °F 8.6 °F 79% 29.98 in 2.5 mi South 11.5 mph - 0.01 in Snow Light Snow
10:51 PM 14.0 °F 0.5 °F 8.6 °F 79% 29.98 in 3.0 mi South 11.5 mph - 0.01 in Snow Light Snow
10:53 PM 14.0 °F 0.5 °F 8.1 °F 77% 30.08 in 3.0 mi South 11.5 mph - 0.01 in Snow Light Snow
11:08 PM 14.0 °F -0.8 °F 8.6 °F 79% 29.98 in 2.5 mi South 13.8 mph - 0.00 in Snow Light Snow
11:21 PM 14.0 °F -0.8 °F 8.6 °F 79% 29.98 in 3.0 mi South 13.8 mph - 0.01 in Snow Light Snow
11:34 PM 14.0 °F 1.2 °F 8.6 °F 79% 29.98 in 3.0 mi South 10.4 mph - 0.01 in Snow Light Snow
11:53 PM 15.1 °F 1.8 °F 8.1 °F 74% 30.08 in 7.0 mi South 11.5 mph - 0.01 in   Overcast